This is the latest recevied weather packets stored in our database for station/object WX7FGZ-3. If no packets are shown the sender has not sent any weather packets the latest 10 day(s).
| Time | Temp. | Humidity | Pressure | Rain* | Wind** | Luminosity | Snow |
|---|---|---|---|---|---|---|---|
| 1778145185 | -2.22° C | 57% | 1019.7 hPa | 0 mm | - | - | - |
| 1778144885 | -1.67° C | 58% | 1019.7 hPa | 0 mm | - | - | - |
| 1778144585 | -1.67° C | 56% | 1019.8 hPa | 0 mm | - | - | - |
| 1778143984 | -1.67° C | 59% | 1019.6 hPa | 0 mm | - | - | - |
| 1778143684 | -1.67° C | 53% | 1019.6 hPa | 0 mm | - | - | - |
| 1778143384 | -1.11° C | 53% | 1019.6 hPa | 0 mm | - | - | - |
| 1778143083 | -1.11° C | 52% | 1019.7 hPa | 0 mm | - | - | - |
| 1778142783 | -1.11° C | 47% | 1019.7 hPa | 0 mm | - | - | - |
| 1778142482 | -1.11° C | 47% | 1019.7 hPa | 0 mm | - | - | - |
| 1778142182 | -1.11° C | 47% | 1019.6 hPa | 0 mm | - | - | - |
| 1778141882 | -1.11° C | 47% | 1019.5 hPa | 0 mm | - | - | - |
| 1778141581 | -1.67° C | 50% | 1019.6 hPa | 0 mm | - | - | - |
| 1778141281 | -1.67° C | 53% | 1019.6 hPa | 0 mm | - | - | - |
| 1778140981 | -1.67° C | 56% | 1019.5 hPa | 0 mm | - | - | - |
| 1778140681 | -1.67° C | 59% | 1019.6 hPa | 0 mm | - | - | - |
| 1778140080 | -1.67° C | 51% | 1019.5 hPa | 0 mm | - | - | - |
| 1778139480 | -1.11° C | 48% | 1019.5 hPa | 0 mm | - | - | - |
| 1778139180 | -1.11° C | 47% | 1019.5 hPa | 0 mm | - | - | - |
| 1778138879 | -1.11° C | 47% | 1019.6 hPa | 0 mm | - | - | - |
| 1778138579 | -1.11° C | 46% | 1019.6 hPa | 0 mm | - | - | - |
| 1778138278 | -1.11° C | 46% | 1019.6 hPa | 0 mm | - | - | - |
| 1778137978 | -1.11° C | 48% | 1019.4 hPa | 0 mm | - | - | - |
| 1778137678 | -1.67° C | 49% | 1019.3 hPa | 0 mm | - | - | - |
| 1778137077 | -1.67° C | 51% | 1019 hPa | 0 mm | - | - | - |
| 1778136477 | -1.67° C | 47% | 1018.8 hPa | 0 mm | - | - | - |
* Rain latest hour (hover to see other rain measurements)
** Current wind speed in m/s (hover to see current wind gust speed)